DateTimeUTC,F1_A11,F1_S11,BsB_S11,BsG_S11,BsR_S11,BbsB_S11,BbsG_S11,BbsR_S11,BaB_A11,BaG_A11,BaR_A11,Tu_S11,T_S11,Uu_S11,U_S11,P_S11,T1_A11
2021-09-06T22:00:00Z,00000200,21000000,,,,,,,-000.31,-000.37,-000.05,18.3,25.4,,00.0,0663.4,31.0
2021-09-06T22:01:00Z,00000200,21000000,,,,,,,-000.50,-000.05,-000.44,18.4,25.4,,00.0,0663.4,31.1
2021-09-06T22:02:00Z,00000200,21000000,,,,,,,-000.38,-000.30,-000.08,18.4,25.4,,00.0,0663.4,31.1
2021-09-06T22:03:00Z,00000200,61000000,,,,,,,-000.63,-000.67,-000.31,18.4,25.5,,00.0,0663.4,31.1
2021-09-06T22:04:00Z,00000200,41000000,0000.26,0000.16,0000.10,-000.31,0000.21,0000.34,0000.05,0000.07,-000.15,18.9,25.4,,00.0,0664.4,31.1
2021-09-06T22:05:00Z,00000200,01000000,0000.20,-000.12,0000.23,0000.11,-000.22,-000.11,-000.21,-000.73,-000.19,18.9,25.4,,00.0,0664.5,31.1
2021-09-06T22:06:00Z,00000200,01000000,-000.14,0000.30,0000.05,-000.05,0000.09,0000.11,-000.28,0000.34,-000.06,18.8,25.3,,00.0,0664.5,31.0
2021-09-06T22:07:00Z,00000200,01000000,0000.21,-000.10,0000.04,0000.40,0000.10,0000.22,0000.11,-000.34,-000.30,18.8,25.3,,00.0,0664.5,31.0
2021-09-06T22:08:00Z,00000200,01000000,0000.21,0000.44,-000.03,-000.21,0000.30,0000.32,-000.17,0000.17,0000.26,18.7,25.3,,00.0,0664.5,31.0
2021-09-06T22:09:00Z,00000200,01000000,0000.36,0000.05,0000.01,0000.63,0000.19,0000.04,-000.21,-000.20,-000.22,18.6,25.2,,00.0,0664.5,31.0
2021-09-06T22:10:00Z,00000200,01000000,0000.13,0000.19,0000.19,-000.37,0000.47,0000.40,0000.64,-000.04,0000.12,18.6,25.2,,00.0,0664.5,31.0
2021-09-06T22:11:00Z,00000200,01000000,0000.66,0000.25,0000.32,-000.41,0000.03,0000.42,-000.09,0000.29,0000.30,18.6,25.1,,00.0,0664.5,31.0
2021-09-06T22:12:00Z,00000200,01000000,0000.17,0000.32,-000.06,0000.07,0000.37,-000.03,0000.01,0000.18,0000.04,18.6,25.1,,00.0,0664.5,31.0
2021-09-06T22:13:00Z,00000200,01000000,0000.92,0000.06,-000.01,0000.29,-000.04,0000.28,0000.41,0000.15,0000.18,18.6,25.2,,00.0,0664.5,31.0
2021-09-06T22:14:00Z,00000200,01000000,-000.03,0000.38,-000.19,-000.63,-000.00,0000.22,-000.31,-000.17,-000.10,18.7,25.2,,00.0,0664.5,31.0
2021-09-06T22:15:00Z,00000200,01000000,-000.51,0000.37,0000.33,0000.20,0000.03,0000.23,0000.23,0000.35,0000.14,18.8,25.2,,00.0,0664.5,31.1
2021-09-06T22:16:00Z,00000200,01000000,0000.30,0000.02,0000.09,-000.08,0000.17,0000.15,0000.24,-000.05,-000.11,18.9,25.3,,00.0,0664.6,31.1
2021-09-06T22:17:00Z,00000200,01000000,0000.36,0000.06,0000.09,-000.15,-000.09,0000.01,0000.13,0000.52,0000.45,19.0,25.4,,00.0,0664.6,31.1
2021-09-06T22:18:00Z,00000200,01000000,0000.10,-000.00,0000.16,0000.44,0000.10,-000.16,-000.15,-000.14,-000.24,19.0,25.3,,00.0,0664.6,31.1
2021-09-06T22:19:00Z,00000200,01000000,0000.42,0000.36,-000.01,0000.20,0000.05,0000.36,-000.15,-000.13,-000.17,18.9,25.3,,00.0,0664.6,31.1
2021-09-06T22:20:00Z,00000200,01000000,0000.30,0000.45,0000.18,0000.03,0000.12,0000.14,0000.21,-000.20,0000.09,18.9,25.3,,00.0,0664.6,31.0
2021-09-06T22:21:00Z,00000200,01000000,0000.46,0000.26,-000.14,0000.25,0000.20,-000.14,0000.52,0000.04,0000.37,18.8,25.3,,00.0,0664.6,31.0
2021-09-06T22:22:00Z,00000200,01000000,0000.52,0000.12,0000.25,0000.08,-000.20,0000.01,-000.44,0000.16,-000.36,18.7,25.2,,00.0,0664.6,31.0
2021-09-06T22:23:00Z,00000200,01000000,0000.97,0000.24,0000.32,-000.29,0000.27,0000.14,0000.29,0000.13,0000.21,18.7,25.2,,00.0,0664.6,31.0
2021-09-06T22:24:00Z,00000200,01000000,0001.07,0000.43,0000.16,-000.88,0000.18,0000.34,-000.04,0000.06,0000.06,18.6,25.2,,00.0,0664.6,31.0
2021-09-06T22:25:00Z,00000200,01000000,0000.35,0000.30,-000.09,0000.17,0000.09,0000.19,0000.10,0000.28,0000.18,18.5,25.1,,00.0,0664.6,31.0
2021-09-06T22:26:00Z,00000200,01000000,0000.16,0000.42,-000.06,0000.46,0000.31,0000.51,0000.42,0000.09,0000.21,18.5,25.1,,00.0,0664.6,31.0
2021-09-06T22:27:00Z,00000200,01000000,0000.04,0000.17,0000.05,0000.16,0000.17,-000.00,0000.49,0000.33,0000.25,18.5,25.1,,00.0,0664.6,31.0
2021-09-06T22:28:00Z,00000200,01000000,0000.44,0000.17,-000.25,-000.07,0000.31,-000.13,0000.10,0000.23,0000.11,18.6,25.1,,00.0,0664.6,31.0
2021-09-06T22:29:00Z,00000200,01000000,0000.40,0000.33,0000.50,-000.34,0000.15,0000.11,0000.40,0000.52,0000.39,18.7,25.2,,00.0,0664.7,31.0
2021-09-06T22:30:00Z,00000200,01000000,0000.44,0000.37,0000.01,0000.13,-000.09,0000.19,0000.28,0000.04,0000.20,18.8,25.2,,00.0,0664.7,31.0
2021-09-06T22:31:00Z,00000200,01000000,-000.00,0000.57,0000.51,0000.16,0000.39,0000.08,-000.03,0000.11,-000.18,18.9,25.3,,00.0,0664.7,31.0
2021-09-06T22:32:00Z,00000200,01000000,0000.78,0000.64,0000.15,-000.05,0000.25,0000.14,0000.30,0000.43,0000.50,18.9,25.3,,00.0,0664.7,31.1
2021-09-06T22:33:00Z,00000200,01000000,0000.50,0000.66,0000.35,0000.05,0000.08,0000.16,0000.04,-000.06,-000.21,18.9,25.3,,00.0,0664.6,31.0
2021-09-06T22:34:00Z,00000200,01000000,0000.79,0000.71,0000.43,0000.17,0000.13,0000.16,0000.26,0000.02,0000.27,18.9,25.3,,00.0,0664.6,31.0
2021-09-06T22:35:00Z,00000200,01000000,0001.01,0000.63,0000.50,-000.15,0000.46,0000.28,0000.10,0000.18,0000.01,18.8,25.2,,00.0,0664.6,31.0
2021-09-06T22:36:00Z,00000200,01000000,0000.23,0000.57,0000.53,-000.26,0000.35,0000.10,0000.16,0000.32,-000.04,18.7,25.2,,00.0,0664.7,31.0
2021-09-06T22:37:00Z,00000200,01000000,0001.30,0000.78,0000.63,-000.06,-000.01,-000.03,0000.32,0000.31,0000.32,18.7,25.2,,00.0,0664.7,31.0
2021-09-06T22:38:00Z,00000200,01000000,0001.26,0001.12,0000.34,0000.25,0000.05,-000.21,0000.26,0000.00,0000.44,18.6,25.1,,00.0,0664.7,31.0
2021-09-06T22:39:00Z,00000200,01000000,0001.31,0000.75,0000.46,0000.49,0000.23,0000.19,0000.59,0000.49,-000.08,18.5,25.1,,00.0,0664.6,31.0
2021-09-06T22:40:00Z,00000200,01000000,0000.85,0000.85,0000.62,0000.50,0000.13,0000.20,0000.23,0000.17,0000.39,18.5,25.1,,00.0,0664.6,31.0
2021-09-06T22:41:00Z,00000200,01000000,0001.06,0000.75,0000.95,-000.35,0000.24,0000.23,0000.32,0000.43,0000.43,18.5,25.0,00.0,00.0,0664.6,31.0
2021-09-06T22:42:00Z,00000200,01000000,0001.70,0001.34,0000.66,-000.04,0000.23,0000.37,0000.26,0000.32,0000.06,18.5,25.0,,00.0,0664.6,31.0
2021-09-06T22:43:00Z,00000200,01000000,0001.68,0001.14,0000.62,0000.22,0000.27,0000.07,0000.68,0000.91,0000.47,18.6,25.1,00.0,00.0,0664.7,31.0
2021-09-06T22:44:00Z,00000200,01000000,0001.65,0000.77,0000.54,0000.19,-000.02,0000.44,0000.65,0000.34,0000.54,18.7,25.1,,00.0,0664.6,31.0
2021-09-06T22:45:00Z,00000200,01000000,0001.29,0000.83,0000.56,-000.28,-000.04,0000.17,0000.24,0000.22,-000.06,18.8,25.2,,00.0,0664.7,31.0
2021-09-06T22:46:00Z,00000200,01000000,0000.41,0000.72,0000.28,-000.26,0000.05,-000.22,0000.47,0000.44,0000.67,18.9,25.2,,00.0,0664.7,31.0
2021-09-06T22:47:00Z,00000200,01000000,0001.64,0000.93,0000.44,-000.19,0000.23,0000.54,0000.28,0000.02,0000.02,18.9,25.2,00.0,00.0,0664.6,31.0
2021-09-06T22:48:00Z,00000200,01000000,0001.29,0000.85,0000.56,-000.07,0000.12,0000.37,0000.19,0000.23,0000.10,18.9,25.2,,00.0,0664.6,31.0
2021-09-06T22:49:00Z,00000200,01000000,0001.10,0000.98,0000.33,-000.15,0000.33,-000.10,0000.67,0000.42,0000.13,18.8,25.2,,00.0,0664.6,31.0
2021-09-06T22:50:00Z,00000200,01000000,0001.01,0000.98,0000.40,0000.35,0000.09,0000.65,0000.05,0000.12,0000.36,18.8,25.2,00.0,00.0,0664.6,31.0
2021-09-06T22:51:00Z,00000200,01000000,0000.82,0000.61,0000.54,-000.07,0000.28,0000.43,0000.24,0000.62,0000.05,18.7,25.1,00.0,00.0,0664.6,31.0
2021-09-06T22:52:00Z,00000200,01000000,0001.07,0000.76,0000.10,0000.36,0000.25,-000.13,0000.11,-000.14,-000.23,18.7,25.1,00.0,00.0,0664.6,31.0
2021-09-06T22:53:00Z,00000200,01000000,0001.15,0000.87,0000.77,-000.18,0000.32,0000.32,0000.47,0000.03,0000.32,18.6,25.1,00.0,00.0,0664.6,31.0
2021-09-06T22:54:00Z,00000200,01000000,0001.74,0001.25,0000.65,0000.16,-000.11,0000.26,0000.21,0000.34,0000.14,18.5,25.0,00.0,00.0,0664.6,31.0
2021-09-06T22:55:00Z,00000200,01000000,0001.52,0001.31,0000.96,0000.20,0000.07,0000.10,0000.52,0000.20,0000.74,18.5,25.0,00.0,00.0,0664.6,31.0
2021-09-06T22:56:00Z,00000200,01000000,0001.12,0001.14,0000.81,-000.40,0000.28,-000.19,0000.43,0000.50,0000.03,18.4,25.0,00.0,00.0,0664.6,31.0
2021-09-06T22:57:00Z,00000200,41000000,,,,,,,-000.26,0000.07,0000.03,18.5,25.0,,00.0,0664.6,31.0
2021-09-06T22:58:00Z,00000200,61000000,,,,,,,0000.04,0000.15,0000.09,18.2,25.2,,00.0,0663.6,31.0
2021-09-06T22:59:00Z,00000200,21000000,,,,,,,0000.30,0000.14,0000.41,18.2,25.3,,00.0,0663.6,31.0
